Back to catalog

STARLINK-5547

AliveCommunicationsVLEO
NORAD 55352·PAYLOAD·🇺🇸 United States

Launched Jan 26, 2023 from Cape Canaveral Space Force Station

Loading…

Next Passes (next 24 hours)

TLE

FreshSource: CelesTrak SupGP

Epoch: Sep 14, 2026, 14:52 UTC

1 55352C 23013X   26257.61993056  .00060741  00000+0  22002-2 0  2572
2 55352  43.0015 313.0300 0001284 277.0536 231.7431 15.27546258    17

Track STARLINK-5547 in real time with AllMySat

Download on the App Store